�������l�o���
Date,Time,MP-1(��Sv/h),MP-2(��Sv/h),MP-3(��Sv/h),MP-4(��Sv/h),MP-5(��Sv/h),MP-6(��Sv/h),MP-7(��Sv/h),MP-8(��Sv/h),����,����(m/s),���J
2020/08/29,00:00,0.715,1.025,0.647,1.260,0.913,0.400,0.701,0.654,��쐼,5.0,��
2020/08/29,00:10,0.718,1.023,0.650,1.258,0.913,0.401,0.702,0.654,��,5.4,��
2020/08/29,00:20,0.717,1.025,0.647,1.258,0.911,0.400,0.702,0.653,��쐼,5.2,��
2020/08/29,00:30,0.717,1.026,0.648,1.257,0.914,0.401,0.703,0.654,��,4.8,��
2020/08/29,00:40,0.716,1.024,0.648,1.257,0.912,0.399,0.702,0.655,��쐼,4.8,��
2020/08/29,00:50,0.718,1.025,0.648,1.257,0.913,0.400,0.702,0.654,��쐼,4.7,��
2020/08/29,01:00,0.717,1.027,0.648,1.258,0.915,0.400,0.702,0.655,��쐼,4.7,��
2020/08/29,01:10,0.716,1.024,0.648,1.257,0.914,0.401,0.703,0.654,��쐼,4.7,��
2020/08/29,01:20,0.717,1.026,0.648,1.255,0.914,0.401,0.704,0.654,��쐼,4.5,��
2020/08/29,01:30,0.717,1.026,0.646,1.256,0.913,0.401,0.700,0.653,��쐼,5.1,��
2020/08/29,01:40,0.717,1.025,0.647,1.257,0.913,0.400,0.704,0.654,��쐼,5.9,��
2020/08/29,01:50,0.716,1.025,0.647,1.256,0.914,0.401,0.701,0.653,��쐼,6.3,��
2020/08/29,02:00,0.715,1.025,0.649,1.257,0.911,0.401,0.703,0.654,�쐼,4.8,��
2020/08/29,02:10,0.717,1.025,0.647,1.256,0.913,0.401,0.703,0.654,��쐼,5.3,��
2020/08/29,02:20,0.717,1.024,0.648,1.258,0.912,0.402,0.703,0.654,��쐼,4.6,��
2020/08/29,02:30,0.717,1.024,0.648,1.257,0.912,0.400,0.702,0.653,��,3.7,��
2020/08/29,02:40,0.717,1.025,0.649,1.260,0.914,0.401,0.702,0.653,��쐼,3.2,��
2020/08/29,02:50,0.716,1.026,0.650,1.255,0.911,0.400,0.702,0.655,��쐼,2.6,��
2020/08/29,03:00,0.718,1.025,0.647,1.258,0.910,0.401,0.701,0.656,��쐼,2.6,��
2020/08/29,03:10,0.716,1.025,0.647,1.260,0.912,0.399,0.702,0.655,��쐼,3.7,��
2020/08/29,03:20,0.719,1.024,0.648,1.255,0.915,0.400,0.701,0.655,�쐼,3.7,��
2020/08/29,03:30,0.717,1.026,0.647,1.259,0.912,0.401,0.703,0.655,�쐼,3.3,��
2020/08/29,03:40,0.717,1.026,0.649,1.258,0.913,0.400,0.702,0.653,�쐼,2.0,��
2020/08/29,03:50,0.716,1.025,0.646,1.256,0.912,0.400,0.702,0.655,��,0.6,��
2020/08/29,04:00,0.716,1.023,0.648,1.259,0.913,0.400,0.701,0.653,�k�k��,1.2,��
2020/08/29,04:10,0.719,1.025,0.648,1.259,0.914,0.400,0.701,0.655,�k��,1.5,��
2020/08/29,04:20,0.719,1.027,0.648,1.255,0.913,0.400,0.702,0.653,�k�k��,1.7,��
2020/08/29,04:30,0.715,1.025,0.648,1.258,0.912,0.401,0.702,0.654,�k��,1.2,��
2020/08/29,04:40,0.716,1.024,0.646,1.258,0.911,0.400,0.703,0.654,�k��,0.6,��
2020/08/29,04:50,0.716,1.026,0.647,1.259,0.911,0.399,0.701,0.654,-,CALM,��
2020/08/29,05:00,0.718,1.026,0.647,1.259,0.914,0.400,0.701,0.655,-,CALM,��
2020/08/29,05:10,0.718,1.025,0.647,1.257,0.913,0.401,0.700,0.654,��,0.9,��
2020/08/29,05:20,0.717,1.025,0.649,1.258,0.912,0.400,0.700,0.653,��,0.9,��
2020/08/29,05:30,0.717,1.026,0.648,1.258,0.913,0.400,0.702,0.654,��,0.8,��
2020/08/29,05:40,0.716,1.025,0.648,1.261,0.913,0.400,0.703,0.655,���k��,0.9,��
2020/08/29,05:50,0.716,1.027,0.646,1.259,0.910,0.400,0.700,0.654,���k��,2.0,��
2020/08/29,06:00,0.718,1.024,0.647,1.258,0.911,0.400,0.701,0.655,�k��,3.9,��
2020/08/29,06:10,0.718,1.023,0.648,1.256,0.912,0.402,0.700,0.654,���k��,3.9,��
2020/08/29,06:20,0.718,1.027,0.648,1.257,0.913,0.402,0.701,0.654,�k��,2.3,��
2020/08/29,06:30,0.717,1.026,0.648,1.259,0.912,0.402,0.701,0.654,�k��,1.9,��
2020/08/29,06:40,0.719,1.026,0.648,1.258,0.911,0.401,0.702,0.654,���k��,1.9,��
2020/08/29,06:50,0.720,1.026,0.649,1.259,0.909,0.402,0.703,0.654,�k�k��,0.6,��
2020/08/29,07:00,0.719,1.027,0.648,1.259,0.913,0.399,0.704,0.654,���k��,1.4,��
2020/08/29,07:10,0.720,1.024,0.648,1.258,0.914,0.401,0.702,0.656,�k�k��,1.1,��
2020/08/29,07:20,0.719,1.025,0.650,1.259,0.916,0.402,0.702,0.655,�k�k��,0.6,��
2020/08/29,07:30,0.719,1.025,0.648,1.260,0.913,0.401,0.702,0.654,-,CALM,��
2020/08/29,07:40,0.719,1.026,0.647,1.258,0.912,0.401,0.703,0.655,-,CALM,��
2020/08/29,07:50,0.717,1.022,0.648,1.258,0.911,0.400,0.701,0.655,-,CALM,��
2020/08/29,08:00,0.718,1.025,0.648,1.258,0.912,0.400,0.703,0.655,��쓌,0.6,��
2020/08/29,08:10,0.718,1.027,0.648,1.258,0.911,0.400,0.704,0.656,��쐼,0.6,��
2020/08/29,08:20,0.719,1.023,0.647,1.259,0.913,0.402,0.702,0.656,��쓌,1.4,��
2020/08/29,08:30,0.719,1.021,0.647,1.257,0.913,0.400,0.703,0.656,��쓌,2.0,��
2020/08/29,08:40,0.717,1.024,0.647,1.259,0.914,0.401,0.704,0.655,��쓌,2.6,��
2020/08/29,08:50,0.717,1.023,0.648,1.259,0.914,0.401,0.703,0.652,��쓌,3.0,��
2020/08/29,09:00,0.718,1.024,0.646,1.256,0.912,0.400,0.703,0.653,��쓌,2.9,��
2020/08/29,09:10,0.718,1.020,0.645,1.259,0.912,0.401,0.701,0.653,��쓌,3.0,��
2020/08/29,09:20,0.718,1.019,0.648,1.260,0.913,0.399,0.701,0.653,��쓌,3.4,��
2020/08/29,09:30,0.719,1.021,0.646,1.260,0.912,0.398,0.700,0.652,�쓌,4.4,��
2020/08/29,09:40,0.718,1.023,0.647,1.259,0.913,0.400,0.702,0.655,��쓌,4.9,��
2020/08/29,09:50,0.719,1.025,0.649,1.261,0.915,0.400,0.702,0.651,��쓌,5.1,��
2020/08/29,10:00,0.718,1.023,0.649,1.260,0.914,0.400,0.701,0.654,��쓌,4.8,��
2020/08/29,10:10,0.718,1.024,0.648,1.260,0.917,0.400,0.702,0.655,��쓌,4.7,��
2020/08/29,10:20,0.720,1.021,0.648,1.260,0.916,0.401,0.702,0.654,��쓌,4.1,��
2020/08/29,10:30,0.719,1.025,0.649,1.260,0.914,0.402,0.703,0.654,��쓌,4.5,��
2020/08/29,10:40,0.718,1.023,0.650,1.262,0.917,0.401,0.702,0.654,��쓌,4.3,��
2020/08/29,10:50,0.719,1.025,0.649,1.262,0.918,0.400,0.702,0.653,��쓌,4.8,��
2020/08/29,11:00,0.720,1.025,0.651,1.262,0.918,0.400,0.701,0.656,��쓌,4.9,��
2020/08/29,11:10,0.718,1.025,0.645,1.261,0.918,0.401,0.701,0.653,��쓌,6.1,��
2020/08/29,11:20,0.719,1.025,0.647,1.262,0.918,0.403,0.701,0.653,��쓌,5.1,��
2020/08/29,11:30,0.721,1.026,0.649,1.260,0.919,0.402,0.701,0.655,��쓌,4.5,��
2020/08/29,11:40,0.720,1.027,0.649,1.263,0.916,0.402,0.703,0.655,��쓌,5.6,��
2020/08/29,11:50,0.721,1.028,0.650,1.259,0.920,0.402,0.702,0.654,��쓌,6.0,��
2020/08/29,12:00,0.719,1.032,0.648,1.260,0.917,0.404,0.705,0.655,��쓌,6.1,��
2020/08/29,12:10,0.720,1.028,0.649,1.260,0.921,0.402,0.703,0.656,��,5.3,��
2020/08/29,12:20,0.720,1.030,0.649,1.258,0.921,0.402,0.703,0.655,��쓌,4.5,��
2020/08/29,12:30,0.719,1.027,0.648,1.260,0.921,0.402,0.704,0.656,��쓌,4.0,��
2020/08/29,12:40,0.721,1.029,0.648,1.261,0.919,0.402,0.704,0.654,��쓌,4.4,��
2020/08/29,12:50,0.724,1.030,0.650,1.260,0.922,0.403,0.704,0.657,��쓌,4.1,��
2020/08/29,13:00,0.723,1.031,0.648,1.260,0.920,0.402,0.705,0.657,��쓌,3.7,��
2020/08/29,13:10,0.723,1.028,0.648,1.263,0.919,0.402,0.706,0.657,��쓌,3.4,��
2020/08/29,13:20,0.724,1.031,0.648,1.263,0.921,0.402,0.705,0.656,��쓌,3.3,��
2020/08/29,13:30,0.723,1.028,0.650,1.264,0.920,0.402,0.705,0.657,��쓌,2.0,��
2020/08/29,13:40,0.722,1.029,0.650,1.263,0.921,0.403,0.707,0.658,��쓌,3.5,��
2020/08/29,13:50,0.722,1.029,0.649,1.264,0.919,0.402,0.705,0.656,��쓌,2.6,��
2020/08/29,14:00,0.724,1.026,0.649,1.262,0.921,0.401,0.706,0.657,��쓌,2.9,��
2020/08/29,14:10,0.724,1.028,0.650,1.262,0.922,0.403,0.707,0.657,�쓌,2.6,��
2020/08/29,14:20,0.723,1.028,0.650,1.264,0.921,0.402,0.705,0.659,�쓌,2.6,��
2020/08/29,14:30,0.721,1.026,0.651,1.262,0.920,0.403,0.704,0.657,��쓌,3.1,��
2020/08/29,14:40,0.722,1.024,0.646,1.261,0.919,0.401,0.703,0.657,��쓌,3.0,��
2020/08/29,14:50,0.720,1.028,0.647,1.263,0.918,0.401,0.703,0.655,��쓌,1.9,��
2020/08/29,15:00,0.721,1.028,0.649,1.264,0.919,0.401,0.705,0.654,��쓌,2.0,��
2020/08/29,15:10,0.720,1.028,0.649,1.265,0.919,0.402,0.704,0.652,��쓌,1.9,��
2020/08/29,15:20,0.720,1.027,0.646,1.263,0.919,0.401,0.704,0.653,��쓌,1.5,��
2020/08/29,15:30,0.719,1.029,0.645,1.265,0.918,0.401,0.702,0.653,��쓌,1.2,��
2020/08/29,15:40,0.718,1.026,0.647,1.265,0.918,0.401,0.702,0.654,��쓌,1.5,��
2020/08/29,15:50,0.719,1.026,0.647,1.266,0.918,0.401,0.700,0.653,��,1.1,��
2020/08/29,16:00,0.721,1.026,0.647,1.263,0.918,0.400,0.701,0.654,��,2.0,��
2020/08/29,16:10,0.720,1.029,0.646,1.262,0.918,0.399,0.702,0.654,-,CALM,��
2020/08/29,16:20,0.721,1.025,0.646,1.262,0.916,0.399,0.701,0.654,�k,0.6,��
2020/08/29,16:30,0.721,1.027,0.646,1.262,0.917,0.401,0.703,0.656,�k,2.3,��
2020/08/29,16:40,0.719,1.025,0.644,1.262,0.918,0.401,0.701,0.655,�k,3.2,��
2020/08/29,16:50,0.719,1.027,0.645,1.262,0.919,0.400,0.701,0.656,�k�k��,3.5,��
2020/08/29,17:00,0.719,1.026,0.647,1.265,0.916,0.401,0.703,0.654,�k�k��,2.6,��
2020/08/29,17:10,0.720,1.028,0.646,1.261,0.917,0.400,0.703,0.655,�k�k��,2.3,��
2020/08/29,17:20,0.719,1.026,0.647,1.262,0.916,0.400,0.704,0.653,�k�k��,1.2,��
2020/08/29,17:30,0.718,1.027,0.646,1.261,0.917,0.399,0.703,0.657,�k�k��,1.1,��
2020/08/29,17:40,0.718,1.025,0.645,1.261,0.919,0.401,0.701,0.657,�k,2.3,��
2020/08/29,17:50,0.721,1.025,0.647,1.262,0.916,0.401,0.702,0.653,�k,2.5,��
2020/08/29,18:00,0.720,1.025,0.648,1.262,0.917,0.401,0.704,0.656,�k,3.0,��
2020/08/29,18:10,0.719,1.027,0.646,1.261,0.917,0.401,0.703,0.655,�k,2.9,��
2020/08/29,18:20,0.718,1.028,0.647,1.262,0.920,0.400,0.704,0.656,�k,3.4,��
2020/08/29,18:30,0.720,1.026,0.646,1.265,0.917,0.401,0.702,0.654,�k,3.2,��
2020/08/29,18:40,0.720,1.026,0.646,1.263,0.916,0.400,0.703,0.655,�k,3.1,��
2020/08/29,18:50,0.719,1.027,0.647,1.260,0.916,0.401,0.702,0.655,�k,2.6,��
2020/08/29,19:00,0.719,1.028,0.646,1.262,0.917,0.400,0.701,0.655,�k,2.5,��
2020/08/29,19:10,0.719,1.023,0.646,1.263,0.917,0.400,0.703,0.655,�k�k��,3.1,��
2020/08/29,19:20,0.719,1.027,0.648,1.264,0.919,0.402,0.702,0.656,�k,3.6,��
2020/08/29,19:30,0.719,1.025,0.645,1.262,0.917,0.400,0.703,0.656,�k,3.7,��
2020/08/29,19:40,0.718,1.026,0.646,1.263,0.916,0.400,0.703,0.657,�k,3.2,��
2020/08/29,19:50,0.720,1.026,0.646,1.261,0.916,0.400,0.703,0.656,�k�k��,4.2,��
2020/08/29,20:00,0.718,1.027,0.647,1.261,0.916,0.401,0.704,0.656,�k�k��,3.6,��
2020/08/29,20:10,0.720,1.027,0.647,1.262,0.917,0.401,0.703,0.655,�k�k��,2.0,��
2020/08/29,20:20,0.720,1.026,0.647,1.262,0.916,0.402,0.704,0.655,�k��,0.9,��
2020/08/29,20:30,0.720,1.026,0.648,1.262,0.915,0.400,0.704,0.656,�k��,0.6,��
2020/08/29,20:40,0.719,1.025,0.648,1.260,0.914,0.401,0.704,0.656,�k,1.5,��
2020/08/29,20:50,0.719,1.023,0.648,1.263,0.917,0.401,0.704,0.655,�k,1.7,��
2020/08/29,21:00,0.719,1.028,0.645,1.264,0.916,0.401,0.703,0.656,�k,1.2,��
2020/08/29,21:10,0.720,1.029,0.647,1.262,0.916,0.401,0.705,0.655,�k�k��,2.0,��
2020/08/29,21:20,0.719,1.028,0.644,1.263,0.914,0.401,0.702,0.654,�k�k��,1.9,��
2020/08/29,21:30,0.720,1.027,0.645,1.260,0.918,0.400,0.703,0.655,�k�k��,1.9,��
2020/08/29,21:40,0.720,1.027,0.648,1.265,0.916,0.402,0.702,0.655,�k,2.3,��
2020/08/29,21:50,0.719,1.025,0.647,1.263,0.918,0.402,0.702,0.654,�k,3.3,��
2020/08/29,22:00,0.720,1.029,0.647,1.262,0.916,0.400,0.702,0.654,�k,3.6,��
2020/08/29,22:10,0.721,1.027,0.648,1.265,0.917,0.402,0.703,0.655,�k�k��,4.2,��
2020/08/29,22:20,0.717,1.027,0.646,1.262,0.915,0.400,0.703,0.655,�k�k��,3.7,��
2020/08/29,22:30,0.720,1.025,0.648,1.262,0.917,0.402,0.703,0.654,�k�k��,2.8,��
2020/08/29,22:40,0.719,1.028,0.648,1.260,0.914,0.401,0.702,0.655,�k,3.1,��
2020/08/29,22:50,0.718,1.028,0.647,1.263,0.916,0.402,0.701,0.654,�k,3.0,��
2020/08/29,23:00,0.720,1.027,0.648,1.263,0.916,0.402,0.703,0.655,�k,2.0,��
2020/08/29,23:10,0.720,1.026,0.648,1.262,0.917,0.402,0.703,0.655,�k�k��,1.5,��
2020/08/29,23:20,0.719,1.029,0.649,1.262,0.917,0.403,0.701,0.654,�k�k��,2.0,��
2020/08/29,23:30,0.720,1.027,0.648,1.262,0.917,0.402,0.703,0.656,�k,1.7,��
2020/08/29,23:40,0.718,1.026,0.648,1.263,0.915,0.400,0.702,0.656,�k,1.7,��
2020/08/29,23:50,0.719,1.027,0.646,1.264,0.919,0.401,0.704,0.655,�k�k��,2.8,��
